SL-8 DEB *, 3743

Orbit data source: Space-Track

SL-8 DEB *, 3743 is space debris in LEO originally from a launch on Mon, 15 Mar 1965 UTC launched from the Tyuratam Missile And Space Complex (TTMTR). Debris objects in space refer to the collection of defunct objects orbiting the Earth. Examples of debris include non-operational satellites, rocket bodies, and fragments generated from explosions, collisions, or faulty payload assembly.

Loading next visibility...
Identifier
3743, 1965-020ES
Orbit
LEO
Country
Flag of CISCIS
Related business
Manufacturer
Unknown
Mission
Spacecraft
Bus & Motor
Unknown
Mass
Unknown
Launch date (UTC)
1965-03-15 (61 years ago)
Launch vehicle
Unknown
Launch site
Tyuratam Missile And Space Complex (TTMTR)
Object type
Payload
Rocket body
Debris
Shape & HBR
Unknown shape, 0.1 m
Radar Cross Section
Medium (>0.1 m² and <1 m²)

Expand to show TLE details & history
Last TLE update: 22 hours ago

TLE from 22 hours ago
0 SL-8 DEB *
1 03743U 65020ES  26192.45609023 -.00000038  00000-0  42454-3 0  9993
2 03743  56.6573 201.5332 0259693  86.1972  60.8576 12.20716177577111
Epoch: 2026-07-11T10:56Z
TLE epoch observation values (Epoch: 2026-07-11T10:56:46.195Z)
Latitude
24.9875°
Longitude
-89.79404°
Altitude
1,494.087 km
Speed
7.163 km/s
True Right ascension
00h 15m 04s
True Declination
24° 52' 06"
Sunlit
Object was in daylight at epoch
Visualization orbit readout
Latitude
Unknown
Longitude
Unknown
Altitude
Unknown
Speed
Unknown
Apparent Right ascension
Unknown
Apparent Declination
Unknown
Sunlit
N/A
Visualization observer readout
Local Sidereal Time
21:06:52
Azimuth
Unknown
Elevation
Unknown
Doppler factor
Unknown
Orbital elements
Apogee altitude
1,796.075 km
Perigee altitude
1,382.264 km
Semi-major axis
7,967.306 km
Eccentricity
0.02597
Inclination
56.6573°
RAAN
201.5332°
Arg. of periapsis
86.1972°
True anomaly
63.49754°
Mean anomaly
60.8576°
Eccentric anomaly
62.17347°
Mean motion
3.05194 °/min
Orbital period
117.96 mins
BSTAR
0.00042454
Loading maneuver chart data...
Computing Atmospheric mass density...
Loading historical data...
Loading historical data...
Loading historical data...
Loading historical data...
Loading historical data...
Loading historical data...
Loading historical data...

Documentation

Showing up to 5 results
|